Location: Chiroubles
(46.1812°N, 4.6660°E)
Time: 20:53:25
(UTC+00:00)

Courier 1B - Pass Details

Date: 06 August 2021
Orbit: 963 x 1209 km, 28.3° (Epoch: 25 September)

Event Time Altitude Azimuth Distance (km) Brightness Sun altitude
Rises 19:51:21 0° 248° (WSW) 4,104 11.3 -7.9°
Reaches altitude 10° 19:55:20 10° 230° (SW) 3,141 10.4 -8.5°
Maximum altitude 20:00:03 17° 193° (SSW) 2,619 9.5 -9.2°
Drops below altitude 10° 20:04:43 10° 155° (SSE) 3,101 9.6 -9.8°
Enters shadow 20:05:22 - 151° (SSE) 3,232 9.7 -9.9°
